Regional Weather Roundup
Issued by NWS

Home | Current Version | Previous Version | Graphics & Text | Print | Product List | Glossary On
Versions: 1 2 3 4 5 6 7 8 9 10 11 12 13 14 15 16 17 18 19 20 21 22 23 24 25 26 27 28 29 30 31 32 33 34 35 36 37 38 39 40 41 42 43 44 45 46 47 48 49 50
368
ASUS45 KTFX 060010
RWRMT
MONTANA REGIONAL WEATHER ROUNDUP
NATIONAL WEATHER SERVICE GREAT FALLS MT
500 PM MST MON DEC 05 2016

NOTE: "FAIR" INDICATES FEW OR NO CLOUDS BELOW 12000 FEET WITH NO
SIGNIFICANT WEATHER AND/OR OBSTRUCTIONS TO VISIBILITY.

MTZ001>007-043-060100-
WEST OF THE DIVIDE

CITY           SKY/WX    TMP DP  RH WIND       PRES   REMARKS
KALISPELL      PTCLDY    21  15  78 CALM      30.01F
MISSOULA       CLOUDY    26  15  63 N6        30.03R WCI  19
BUTTE          CLOUDY    19   0  43 W10       29.89R WCI   7
MULLAN PASS    CLOUDY    12   8  84 VRB3      29.84F
ANACONDA         N/A     18   1  49 W8        29.92R WCI   7
DEER LODGE       N/A     19  12  73 NW9       29.95S WCI   9
EUREKA           N/A     21  19  93 SE3       30.02F
HAMILTON         N/A     25  10  54 CALM      30.00S
LIBBY            N/A     23  16  74 CALM      30.01S
RONAN            N/A     24  15  68 CALM      30.05S
$$

MTZ008-052>055-060100-
SOUTHWEST MONTANA

CITY           SKY/WX    TMP DP  RH WIND       PRES   REMARKS
BOZEMAN        CLOUDY    22   8  55 E9        29.93F WCI  12
DILLON         CLEAR     17   3  54 SW14      29.90F WCI   3
W YELLOWSTONE  CLEAR      9  -2  61 SW6       29.88S WCI  -1
ENNIS          CLOUDY    19   0  42 S9        29.95S WCI   9
THREE FORKS      N/A     22  22 100 CALM      29.94S
TWIN BRIDGES     N/A     22  -5  30 CALM      29.92S
$$

MTZ009-010-012-014-046-048-049-054-060100-
EAST SLOPES AND CENTRAL MONTANA

CITY           SKY/WX    TMP DP  RH WIND       PRES   REMARKS
CUT BANK       CLOUDY     7   1  76 NW10      30.05S WCI  -8
GREAT FALLS    LGT SNOW   9   5  84 N9        30.06S WCI  -4
MALMSTROM AFB  LGT SNOW  10   6  85 NW7       30.09R WCI  -1
HELENA         CLOUDY    15  10  80 NW5       29.99R
CHOTEAU          N/A      3  -2  78 NW7       30.07S WCI  -9
$$

MTZ011-013-016-021-045-047-050-051-060100-
NORTH CENTRAL MONTANA

CITY           SKY/WX    TMP DP  RH WIND       PRES   REMARKS
HAVRE          CLOUDY     8   0  69 W13       30.12S WCI  -8
LEWISTOWN      CLOUDY     7   2  80 W8        29.99R WCI  -6
N BAR RANCH    CLOUDY    10   1  67 NW15      29.94S WCI  -6
CHINOOK          N/A      7   0  72 W16G23    30.12R WCI -11
$$

MTZ017>020-022>027-061-062-060100-
NORTHEAST MONTANA

CITY           SKY/WX    TMP DP  RH WIND       PRES   REMARKS
GLASGOW        MOCLDY     6  -2  69 W22G33    30.03R WCI -15
JORDAN           N/A      9   0  67 NW24      30.00S WCI -12
SIDNEY         LGT SNOW  10   5  80 NW35G40   29.88R WCI -13
WOLF POINT     CLOUDY    11   1  64 NW29G36   30.00R WCI -11
PLENTYWOOD       N/A      9   7  92 W26G39    29.85R VSB 1/2 WCI -13
$$

MTZ028>42-056>058-060100-
SOUTHCENTRAL AND SOUTHEAST MONTANA

CITY           SKY/WX    TMP DP  RH WIND       PRES   REMARKS
BAKER          LGT SNOW   9   4  80 NW29G41   29.88R VSB 1   WCI -13
BILLINGS       MOCLDY    19   4  51 W7        29.97S WCI  10
LIVINGSTON     PTCLDY    17   6  62 NW7       29.92S WCI   8
MILES CITY     CLOUDY    13   2  61 NW22G29   30.00R WCI  -6
BIG TIMBER     PTCLDY    19   5  53 W16       29.94S WCI   5
FORSYTH          N/A     14   7  73 W14       30.01R WCI  -1
LAUREL           N/A     20  -1  39 N2        29.96R
$$

REGIONAL REPORTS...DAKOTAS

CITY           SKY/WX    TMP DP  RH WIND       PRES   REMARKS
WILLISTON      SNOW      12   7  80 NW32G46   29.83R VSB 1/2 WCI -10
MINOT          CLOUDY    22  20  92 W21       29.63R FOG     WCI   6
DICKINSON      LGT SNOW   9   5  84 NW32G41   29.76R VSB 3/4 WCI -14
BEACH          LGT SNOW   7   5  92 NW29G41   29.89R VSB 3/4 WCI -16
CROSBY         SNOW      14  14 100 NW30G39   29.80R VSB 1/2 WCI  -7
TIOGA          HVY SNOW  14  14 100 NW31G43   29.75R VSB 1/4 WCI  -7
WATFORD CITY   LGT SNOW  10   7  85 NW24G33   29.81R WCI -10
BISMARCK       CLOUDY    19  16  88 NW28G38   29.68R BLWGSNOWWCI   1
GRAND FORKS    CLOUDY    31  27  85 NE14      29.58F WCI  21
FARGO          CLOUDY    34  30  85 E7        29.50F WCI  28
BUFFALO SD       N/A     12   5  73 NW31G38   29.75R WCI -10
RAPID CITY     PTCLDY    21  13  71 NW23      29.82R WCI   5
$$

REGIONAL REPORTS...WYOMING/IDAHO/WASHINGTON

CITY           SKY/WX    TMP DP  RH WIND       PRES   REMARKS
GILLETTE       CLOUDY    15   9  76 NW16      29.88R WCI  -1
SHERIDAN       PTCLDY    19   9  65 NW20      29.96R WCI   3
BUFFALO WY     MIX PCPN  17   8  67 NW25G36   29.88R WCI  -1
CODY           CLOUDY    15   7  70 N6        29.92S WCI   6
YELLOWSTONE LA   N/A      1  -2  87 CALM      29.83S
IDAHO FALLS    PTCLDY    22  12  65 S16       29.99S WCI   8
SALMON         CLEAR     18   5  57 E3        29.99S
BOISE          CLEAR     32  14  47 CALM      30.07F
SPOKANE        MOCLDY    30  22  72 SE5       30.01F
$$

REGIONAL REPORTS...ALBERTA

CITY           SKY/WX    TMP DP  RH WIND       PRES   REMARKS
EDMONTON       CLOUDY     0 -11  60 NW15G21   30.22R WCI -20
CALGARY        PTCLDY     1  -8  66 N7        30.08R WCI -11
LETHBRIDGE     CLOUDY     7   0  72 NW9       30.12R WCI  -7
MEDICINE HAT   CLOUDY     7   0  72 NW12G18   30.15R WCI  -9
WATERTON GATE    N/A      5   1  85 NE2         N/A
CARDSTON         N/A      7   1  78 SE2         N/A
MILK RIVER       N/A      7   1  78 NW9         N/A  WCI  -7
ONEFOUR          N/A      3  -2  78 NW16        N/A  WCI -16
$$

REGIONAL REPORTS...SASKATCHEWAN

CITY           SKY/WX    TMP DP  RH WIND       PRES   REMARKS
SWIFT CURRENT  CLOUDY     3   0  85 NW24G32   29.96R WCI -20
REGINA         LGT SNOW  14  10  85 NW17G25   29.89R BLWGSNOWWCI  -3
SASKATOON      FLURRIES   9   0  66 NW16G23   30.03R WCI  -9
CYPRESS HILLS    N/A     -2  -6  84 NW9G17      N/A  WCI -18
VAL MARIE        N/A      3  -4  72 NW10        N/A  WCI -12
ROCKGLEN         N/A      3   0  85 NW21G28     N/A  WCI -18
ASSINIBOIA       N/A      0  -6  78 NW17G24     N/A  WCI -21
$$




USA.gov is the U.S. government's official web portal to all federal, state and local government web resources and services.